[[{"header":{"parameterUnit":"m.s-1","parameterCategory":1,"la1":30.2991,"la2":30.254,"lo1":-89.0895,"lo2":-89.0444,"dy":0.0017,"dx":0.0017,"nx":28,"ny":28,"refTime":"2024-04-26T03:00:00:Z","depth":0,"parameterNumber":2,"parameterNumberName":"U-component_of_WINDS"},"data":[0,0,0,0,0,0,0,0,0,0,0,0,0,0,0,0,0,0,0,0,0,0,0,0,0,0,0,0,0,0,0,0,0,0,0,0,0,0,0,0,0,0,0,0,0,0,0,0,0,0,0,0,0,0,0,0,0,0,-1.7478,-1.7479,0,-1.7537,-1.7537,-1.7538,-1.7534,-1.7533,-1.7532,-1.7531,-1.7593,-1.7595,-1.7598,0,0,0,0,0,0,0,0,0,0,0,0,0,-1.7364,-1.7366,-1.7478,-1.7479,-1.7479,-1.7537,-1.7537,-1.7538,-1.7534,-1.7533,-1.7532,-1.7531,-1.7592,-1.7595,-1.7598,0,0,0,0,0,0,0,0,0,0,0,0,0,-1.7417,-1.7366,-1.7478,-1.7484,-1.7485,-1.7536,-1.7537,-1.7538,-1.7534,-1.7533,-1.7532,-1.753,-1.7591,-1.7595,-1.7598,-1.7648,0,0,-1.761,-1.7611,0,0,0,0,0,0,0,0,-1.7414,-1.7421,-1.7482,-1.7484,-1.7485,-1.7527,-1.752,-1.7575,-1.7535,-1.7516,-1.7531,-1.753,-1.7572,-1.7577,-1.7591,-1.765,-1.7653,-1.761,-1.7612,-1.7614,-1.7615,0,0,0,0,0,0,0,-1.741,-1.7419,-1.7501,-1.7483,-1.7485,-1.7485,-1.7491,-1.753,-1.7551,-1.7517,-1.7517,-1.7524,-1.7572,-1.7588,-1.7593,-1.7654,-1.761,-1.7613,-1.7615,-1.7617,-1.7757,-1.7759,0,0,0,0,0,0,-1.7405,-1.7416,-1.7499,-1.7503,-1.7445,-1.7488,-1.7495,-1.7515,-1.755,-1.7554,-1.7525,-1.7524,-1.7582,-1.7588,-1.7595,-1.7655,-1.7614,-1.7617,-1.7619,-1.7756,-1.7757,-1.7759,0,0,0,0,0,0,-1.7402,-1.7412,-1.7497,-1.7459,-1.747,-1.7491,-1.7514,-1.7516,-1.7532,-1.7556,-1.756,-1.7537,-1.7581,-1.7589,-1.7634,-1.7657,-1.7619,-1.7622,-1.7754,-1.7756,-1.7758,-1.7775,0,0,0,0,0,0,-1.7399,-1.7411,-1.743,-1.746,-1.7472,-1.7535,-1.7515,-1.7519,-1.7538,-1.7536,-1.7568,-1.7572,-1.7581,-1.7629,-1.7638,-1.7661,-1.7625,-1.7752,-1.7755,-1.7758,-1.7773,-1.7778,-1.7782,0,0,0,0,0,-1.7395,-1.7433,-1.7431,-1.7441,-1.7495,-1.7536,-1.7544,-1.7553,-1.754,-1.7559,-1.7574,-1.7571,-1.7653,-1.7634,-1.7644,-1.7668,-1.7751,-1.7754,-1.7757,-1.7771,-1.7777,-1.7782,0,0,0,0,0,0,-1.7406,-1.7437,-1.7435,-1.7483,-1.7507,-1.7536,-1.756,-1.7559,-1.7587,-1.7585,-1.7596,-1.7603,-1.7648,-1.7663,-1.7641,-1.7718,-1.77,-1.7706,-1.7707,-1.7713,-1.7717,-1.7713,-1.7628,0,0,0,0,0,-1.7413,-1.7444,-1.7469,-1.7509,-1.7522,-1.7539,-1.7557,-1.7562,-1.7587,-1.7598,-1.7617,-1.7642,-1.7673,-1.7694,-1.7724,-1.7775,-1.7782,-1.7797,-1.7802,-1.7806,-1.781,-1.7839,-1.7846,-1.777,-1.777,-1.777,0,0,-1.743,-1.7451,-1.7469,-1.7512,-1.7531,-1.7563,-1.7547,-1.7581,-1.7605,-1.7603,-1.7646,-1.7661,-1.769,-1.7738,-1.7761,-1.7752,-1.7833,-1.781,-1.7813,-1.7815,-1.7843,-1.785,-1.7856,-1.7773,-1.7772,-1.7772,0,0,-1.7476,-1.7495,-1.753,-1.755,-1.7579,-1.759,-1.7599,-1.7628,-1.7637,-1.7681,-1.768,-1.7709,-1.7763,-1.7784,-1.7801,-1.7856,-1.7854,-1.7866,-1.789,-1.7918,-1.7923,-1.7929,-1.7948,-1.7955,-1.787,-1.787,-1.7871,0,-1.7494,-1.754,-1.7549,-1.7583,-1.7602,-1.7602,-1.7638,-1.7657,-1.7694,-1.7708,-1.7698,-1.7766,-1.7785,-1.7838,-1.7852,-1.7866,-1.7876,-1.7862,-1.7922,-1.7927,-1.7932,-1.7951,-1.7959,-1.7872,-1.7872,-1.7871,-1.7871,0,-1.756,-1.7593,-1.7618,-1.7654,-1.7676,-1.7711,-1.7726,-1.7747,-1.775,-1.7763,-1.7808,-1.7831,-1.7866,-1.7879,-1.7883,-1.7933,-1.7927,-1.7919,-1.7901,-1.7941,-1.7959,-1.7966,-1.7873,-1.7873,-1.7873,-1.7872,0,0,-1.7615,-1.7655,-1.7664,-1.768,-1.7713,-1.7738,-1.7774,-1.7808,-1.7826,-1.7852,-1.7883,-1.7928,-1.7922,-1.7942,-1.7948,-1.7972,-1.8014,-1.7961,-1.7962,-1.797,-1.8071,-1.8076,-1.8085,-1.8013,-1.8014,-1.8015,-1.8069,0,-1.7664,-1.7726,-1.7735,-1.779,-1.7821,-1.7821,-1.7852,-1.7875,-1.7888,-1.7916,-1.7931,-1.7963,-1.7952,-1.7964,-1.7987,-1.8004,-1.8034,-1.8,-1.8041,-1.8043,-1.8034,-1.8094,-1.81,-1.8149,-1.8076,-1.8077,-1.8078,0,-1.7731,-1.7758,-1.7816,-1.7844,-1.7857,-1.7885,-1.7917,-1.7944,-1.7971,-1.7978,-1.8001,-1.8004,-1.8041,-1.8022,-1.8074,-1.805,-1.8068,-1.8078,-1.8081,-1.8085,-1.8062,-1.81,-1.8165,-1.8172,-1.8089,-1.8088,-1.8087,0,-1.7765,-1.7816,-1.7858,-1.7872,-1.7905,-1.7925,-1.794,-1.7965,-1.7985,-1.8014,-1.8027,-1.8059,-1.8077,-1.8102,-1.8114,-1.8099,-1.8166,-1.8147,-1.8173,-1.8173,-1.8187,-1.8186,-1.8256,-1.8199,-1.8199,-1.8199,-1.8198,0,-1.7819,-1.7855,-1.7873,-1.7899,-1.7939,-1.7949,-1.7988,-1.8003,-1.8026,-1.8054,-1.8057,-1.8084,-1.8098,-1.8127,-1.8137,-1.8179,-1.8187,-1.8195,-1.8197,-1.8194,-1.8193,-1.8206,-1.8203,-1.8201,-1.82,-1.82,-1.8199,0,-1.7864,-1.7878,-1.7923,-1.7951,-1.7959,-1.7987,-1.8012,-1.8037,-1.8049,-1.8086,-1.8095,-1.8115,-1.815,-1.8164,-1.8207,-1.8214,-1.8262,-1.8261,-1.8252,-1.8253,-1.8278,-1.8276,-1.8359,-1.837,-1.8305,-1.8306,-1.8306,0,-1.7898,-1.7925,-1.7956,-1.7975,-1.7991,-1.8022,-1.8042,-1.8053,-1.8074,-1.8107,-1.8128,-1.8163,-1.8191,-1.8247,-1.8266,-1.8298,-1.8299,-1.8326,-1.8304,-1.8301,-1.8299,-1.8298,-1.83,-1.833,-1.833,-1.8331,-1.8331,0,-1.7957,-1.7962,-1.7991,-1.8022,-1.8046,-1.8071,-1.8096,-1.8112,-1.8127,-1.8151,-1.8186,-1.8208,-1.8252,-1.8286,-1.832,-1.8336,-1.8337,-1.8338,-1.8346,-1.8344,-1.8337,-1.8341,-1.8263,-1.8336,-1.8335,-1.8335,-1.8335,-1.8335,-1.7997,-1.8022,-1.8047,-1.8079,-1.8099,-1.8122,-1.8147,-1.8162,-1.8192,-1.8228,-1.8233,-1.827,-1.8297,-1.8343,-1.836,-1.839,-1.8384,-1.8395,-1.8398,-1.8401,-1.8402,-1.8332,-1.8397,-1.8397,-1.8396,-1.8396,-1.8396,0,-1.8056,-1.8073,-1.8102,-1.8136,-1.8162,-1.8159,-1.8186,-1.8208,-1.8241,-1.8265,-1.8293,-1.8334,-1.8367,-1.8389,-1.8423,-1.8443,-1.8444,-1.8451,-1.845,-1.8454,-1.8406,-1.8396,-1.845,-1.845,-1.845,-1.845,-1.845,-1.845,-1.809,-1.8131,-1.8139,-1.819,-1.8207,-1.8243,-1.8259,-1.8281,-1.83,-1.8345,-1.8373,-1.8386,-1.841,-1.8445,-1.8476,-1.8482,-1.8494,-1.8502,-1.8507,-1.8463,-1.8457,-1.8452,-1.8442,-1.8505,-1.8505,-1.8552,-1.8553,-1.8553]},{"header":{"parameterUnit":"m.s-1","parameterCategory":1,"la1":30.2991,"la2":30.254,"lo1":-89.0895,"lo2":-89.0444,"dy":0.0017,"dx":0.0017,"nx":28,"ny":28,"refTime":"2024-04-26T03:00:00:Z","depth":0,"parameterNumber":3,"parameterNumberName":"V-component_of_WINDS"},"data":[0,0,0,0,0,0,0,0,0,0,0,0,0,0,0,0,0,0,0,0,0,0,0,0,0,0,0,0,0,0,0,0,0,0,0,0,0,0,0,0,0,0,0,0,0,0,0,0,0,0,0,0,0,0,0,0,0,0,4.7592,4.7592,0,4.7595,4.7595,4.7595,4.7496,4.7493,4.749,4.7488,4.749,4.7493,4.7495,0,0,0,0,0,0,0,0,0,0,0,0,0,4.7499,4.7501,4.7592,4.7592,4.7592,4.7595,4.7595,4.7595,4.7496,4.7493,4.749,4.7487,4.7489,4.7492,4.7495,0,0,0,0,0,0,0,0,0,0,0,0,0,4.7525,4.7502,4.7592,4.7543,4.7539,4.7595,4.7595,4.7595,4.7497,4.7493,4.7489,4.7485,4.7488,4.7492,4.7496,4.7599,0,0,4.7507,4.7509,0,0,0,0,0,0,0,0,4.7523,4.7528,4.755,4.7547,4.7542,4.7541,4.7563,4.7596,4.7498,4.7513,4.7488,4.7483,4.751,4.7512,4.7521,4.7599,4.7599,4.7508,4.751,4.7512,4.7513,0,0,0,0,0,0,0,4.7522,4.7527,4.7593,4.7551,4.7546,4.752,4.752,4.7569,4.7534,4.7511,4.7504,4.7506,4.7507,4.7518,4.7521,4.7599,4.7508,4.7511,4.7513,4.7515,4.7758,4.7762,0,0,0,0,0,0,4.7527,4.7527,4.7593,4.7593,4.7523,4.7525,4.7524,4.7545,4.7533,4.7527,4.7509,4.7501,4.7513,4.7516,4.752,4.7638,4.7512,4.7515,4.7517,4.7754,4.7759,4.7764,0,0,0,0,0,0,4.7525,4.7534,4.7593,4.7558,4.7564,4.7531,4.7555,4.7547,4.7558,4.7531,4.7524,4.7526,4.751,4.7515,4.7579,4.7636,4.7517,4.752,4.7749,4.7756,4.7762,4.7875,0,0,0,0,0,0,4.7523,4.7534,4.7573,4.756,4.7566,4.7653,4.7559,4.755,4.7565,4.7554,4.7546,4.7541,4.7507,4.7574,4.7583,4.7639,4.7523,4.7744,4.7752,4.776,4.7866,4.7884,4.79,0,0,0,0,0,4.752,4.7605,4.7576,4.7584,4.7614,4.7656,4.766,4.762,4.757,4.7608,4.7591,4.7541,4.7629,4.7582,4.7591,4.7649,4.774,4.775,4.7759,4.7858,4.7881,4.79,0,0,0,0,0,0,4.7627,4.7603,4.7569,4.7653,4.7658,4.764,4.7687,4.7646,4.7664,4.7654,4.7604,4.7603,4.7675,4.7668,4.7616,4.7747,4.7676,4.7687,4.7748,4.7769,4.7786,4.7785,4.7526,0,0,0,0,0,4.766,4.7696,4.7673,4.7749,4.7753,4.772,4.7737,4.7706,4.7708,4.771,4.7697,4.7701,4.7729,4.7749,4.7774,4.7865,4.7861,4.791,4.7927,4.7941,4.7951,4.7997,4.8018,4.7795,4.7795,4.7795,0,0,4.7729,4.772,4.7747,4.7771,4.777,4.7808,4.7722,4.7767,4.7794,4.7716,4.7776,4.7767,4.7768,4.7846,4.7879,4.7843,4.8012,4.7953,4.7965,4.7967,4.8009,4.803,4.8049,4.7801,4.78,4.7799,0,0,4.7873,4.7872,4.7933,4.7935,4.7935,4.7912,4.7927,4.7916,4.7906,4.7965,4.7907,4.7939,4.799,4.7992,4.8,4.8144,4.8098,4.8154,4.8243,4.8288,4.8305,4.832,4.837,4.8389,4.8165,4.8165,4.8165,0,4.7959,4.8014,4.7971,4.8018,4.8029,4.7961,4.8022,4.8026,4.8035,4.8044,4.8003,4.8064,4.806,4.8136,4.8171,4.8181,4.8195,4.8154,4.8306,4.8321,4.8335,4.8381,4.84,4.8172,4.8171,4.817,4.817,0,4.8118,4.8157,4.8207,4.8216,4.8234,4.8288,4.8252,4.8275,4.8242,4.8223,4.8283,4.8276,4.8297,4.8314,4.8283,4.8385,4.8362,4.8315,4.8242,4.8363,4.8406,4.8424,4.8181,4.8179,4.8177,4.8175,0,0,4.833,4.8313,4.8332,4.8334,4.833,4.8359,4.8409,4.843,4.8449,4.8458,4.8498,4.8542,4.8497,4.8506,4.8475,4.8515,4.8627,4.8462,4.8461,4.8491,4.8737,4.8772,4.8793,4.8597,4.8601,4.8603,4.8737,0,4.8468,4.8554,4.8515,4.8604,4.8639,4.8574,4.8617,4.8619,4.8603,4.8629,4.8611,4.8642,4.8582,4.8587,4.8624,4.8606,4.8676,4.8596,4.8633,4.8635,4.8633,4.8816,4.8853,4.8979,4.8753,4.8756,4.8758,0,4.8641,4.8655,4.8748,4.8735,4.8748,4.8788,4.8802,4.8829,4.8829,4.8814,4.8824,4.8783,4.8831,4.876,4.8824,4.8771,4.8784,4.8778,4.8781,4.8782,4.8703,4.8819,4.9018,4.9037,4.8785,4.8782,4.8781,0,4.8784,4.8826,4.8886,4.8891,4.8878,4.8907,4.8903,4.8898,4.8913,4.8926,4.8934,4.8953,4.8963,4.8978,4.8943,4.8895,4.9012,4.8938,4.9,4.9001,4.9026,4.9024,4.9228,4.9038,4.9038,4.9037,4.9037,0,4.8941,4.9,4.895,4.8987,4.905,4.9005,4.9069,4.9057,4.9054,4.9087,4.9033,4.9065,4.9017,4.9044,4.9018,4.9074,4.908,4.9068,4.906,4.9072,4.9073,4.9078,4.9068,4.9042,4.9041,4.904,4.9039,0,4.911,4.908,4.914,4.9122,4.9119,4.9166,4.915,4.9183,4.9163,4.9205,4.9213,4.9181,4.921,4.9177,4.9204,4.9186,4.9262,4.9242,4.9262,4.9255,4.9318,4.9312,4.953,4.9556,4.9352,4.9354,4.9355,0,4.9212,4.9255,4.9241,4.9259,4.9258,4.9288,4.9302,4.9259,4.9275,4.9277,4.931,4.9334,4.9351,4.9401,4.938,4.94,4.9379,4.9454,4.9381,4.9392,4.9377,4.9375,4.9378,4.9468,4.9471,4.9473,4.9474,0,4.9395,4.9377,4.9399,4.9415,4.9433,4.9444,4.9451,4.9468,4.9424,4.9445,4.9473,4.9487,4.9513,4.9538,4.9552,4.9547,4.9503,4.9498,4.9512,4.9524,4.9533,4.9527,4.93,4.9492,4.9491,4.9489,4.9488,4.9488,4.9532,4.9567,4.9562,4.9587,4.9588,4.9595,4.9624,4.9607,4.963,4.9648,4.9621,4.9657,4.9654,4.9668,4.9668,4.9695,4.9663,4.9685,4.969,4.9696,4.9704,4.9531,4.9698,4.9697,4.9696,4.9696,4.9696,0,4.9711,4.9704,4.9728,4.9738,4.9758,4.9715,4.972,4.9739,4.9771,4.9772,4.9789,4.9821,4.9845,4.9826,4.9845,4.987,4.985,4.9876,4.9873,4.9872,4.9733,4.9717,4.9891,4.9891,4.9891,4.9891,4.9891,4.9891,4.9806,4.9861,4.9843,4.9897,4.989,4.9923,4.993,4.9935,4.9936,4.9974,4.9992,4.998,4.9972,4.999,5.0009,5.0003,5.0012,5.0045,5.0031,4.9901,4.9882,4.9864,4.9848,5.0047,5.0047,5.0167,5.0169,5.0169]}]]